Погода в Новокулеве

Россия / Республика Башкортостан     55˚04′59″N   56˚37′08″E
темп.,
°C
ветер,
м/с
пор.,
м/с
влажн.,
%
обл.,
%
осадки,
мм/ч
давл.,
гПа
погр.,
м
17 января, вс
вс1723:00−10˚ююз6159099 0.1 1007720
02:00−9˚ююз71590100 0.1 1005709
05:00−9˚ююз91690100 0.4 1003840
08:00−9˚ююз91586100 0.6 1002805
11:00−12˚юз81394100 1.7 1004787
14:00−12˚юз71190100 0.8 10071025
17:00−13˚юз51192100 1.1 1010659
20:00−16˚юз4995100 0.1 1013339
18 января, пн
пн1823:00−19˚юз3697100 0.2 1015151
02:00−21˚ююз3499100 0.1 101884
05:00−23˚ю2399100 0.1 102025
08:00−25˚ююв129997 0.0 102020
11:00−23˚юв119784 0.0 102128
14:00−19˚вюв019138 0.0 1020191
17:00−22˚ссз119748 0.0 102020
20:00−22˚ссв129563 0.0 102020
19 января, вт
вт1923:00−21˚ссв229481 0.0 101921
02:00−18˚ссв2391100 0.0 101890
05:00−16˚ссв2390100 0.1 1016107
08:00−14˚св3593100 0.3 1014208
11:00−12˚всв4894100 1.2 1013271
14:00−11˚в3490100 0.1 1011192
17:00−10˚в2493100 0.1 1010138
20:00−9˚вюв3795100 1.1 1009313
20 января, ср
ср2023:00−9˚ю2596100 2.3 1010218
02:00−11˚ю51093100 0.8 1010568
05:00−13˚ю51093100 1.0 1011483
08:00−16˚ююз5995100 0.2 1013325
11:00−19˚ююз5996100 0.4 1014371
14:00−18˚ююз6993100 0.2 1015494
17:00−18˚ююз5995100 0.3 1015520
20:00−19˚ююз41096100 0.2 1016501
21 января, чт
чт2123:00−20˚ююз4997100 0.3 1016426
02:00−21˚ююз499697 0.1 1016360
05:00−22˚ююз489798 0.2 1016325
08:00−22˚ююз479898 0.1 1016254
11:00−21˚юз469699 0.3 1017378
14:00−20˚юз4595100 0.1 1017360
17:00−19˚ююз4797100 0.3 1017327
20:00−20˚ю4898100 0.3 1018238